Johnstown, PA

6:04 AM EST on November 21, 2017 (GMT -0500)
Johnstown-Cambria County

Weather History for KJST - March, 2013

Change the Weather History Date:

Monday, March 18, 2013

  Actual Average Record
Temperature  
Mean Temperature 26 °F 36 °F  
Max Temperature 28 °F 44 °F 79 °F (1945)
Min Temperature 24 °F 28 °F 0 °F (1916)
Degree Days  
Heating Degree Days 39 29  
Month to date heating degree days 573  
Since 1 July heating degree days 5452  
Cooling Degree Days 0 0  
Month to date cooling degree days 0  
Year to date cooling degree days 0  
Moisture  
Dew Point 21 °F    
Average Humidity 84    
Maximum Humidity 100    
Minimum Humidity 69    
Precipitation  
Precipitation 0.14 in 0.12 in 2.70 in (1908)
Month to date precipitation 1.65  
Year to date precipitation 6.88  
Sea Level Pressure  
Sea Level Pressure 29.98 in    
Wind  
Wind Speed 13 mph (SE)    
Max Wind Speed 23 mph    
Max Gust Speed 36 mph    
Visibility 4 miles    
Events Fog , Rain , Snow    
T = Trace of Precipitation, MM = Missing Value Source: NWS Daily Summary

Daily Weather History Graph

Daily Weather History Graph

Search for Another Location

Airport or City:

Trip Planner

Search our weather history database for the weather conditions in past years. The results will help you decide how hot, cold, wet, or windy it might be!

Date:

Astronomy

Mar. 18, 2013 Rise Set
Actual Time 7:21 AM EDT 7:25 PM EDT
Civil Twilight 6:54 AM EDT 7:52 PM EDT
Nautical Twilight 6:22 AM EDT 8:24 PM EDT
Astronomical Twilight 5:50 AM EDT 8:56 PM EDT
Moon 11:18 AM EDT (3/18) 1:24 AM EDT (3/18)
Length of Visible Light 12h 58m
Length of Day
12h 03m
Waxing Crescent, 40% of the Moon is Illuminated
Mar 18
Waxing Crescent
Mar 19
First Quarter
Mar 27
Full
Apr 3
Last Quarter
Apr 10
New

Hourly Weather History & Observations

Time (EDT) Temp. Windchill Dew Point Humidity Pressure Visibility Wind Dir Wind Speed Gust Speed Precip Events Conditions
12:54 AM 25.0 °F 18.1 °F 17.1 °F 72% 30.19 in 10.0 mi East 5.8 mph - N/A   Mostly Cloudy
1:54 AM 26.1 °F 16.8 °F 17.1 °F 69% 30.19 in 10.0 mi ESE 9.2 mph - N/A   Mostly Cloudy
2:54 AM 26.1 °F 16.2 °F 17.1 °F 69% 30.19 in 10.0 mi SE 10.4 mph 18.4 mph N/A   Overcast
3:54 AM 26.1 °F 16.8 °F 17.1 °F 69% 30.18 in 10.0 mi SE 9.2 mph 20.7 mph N/A   Overcast
4:54 AM 26.1 °F 15.6 °F 17.1 °F 69% 30.18 in 10.0 mi SE 11.5 mph 18.4 mph N/A   Overcast
5:08 AM 26.6 °F 15.7 °F 19.4 °F 74% 30.10 in 2.5 mi SE 12.7 mph 19.6 mph 0.00 in Snow Light Snow
5:17 AM 24.8 °F 14.6 °F 19.4 °F 80% 30.10 in 1.0 mi SE 10.4 mph 17.3 mph 0.00 in Snow Light Snow
5:23 AM 24.8 °F 15.3 °F 21.2 °F 86% 30.10 in 0.8 mi SE 9.2 mph - 0.00 in Snow Light Snow
5:39 AM 24.8 °F 12.9 °F 21.2 °F 86% 30.10 in 0.8 mi SE 13.8 mph 20.7 mph 0.01 in Snow Light Snow
5:54 AM 24.1 °F 14.4 °F 21.0 °F 88% 30.18 in 0.5 mi SE 9.2 mph 20.7 mph 0.02 in Fog , Snow Snow
6:09 AM 24.8 °F 14.0 °F 21.2 °F 86% 30.09 in 1.0 mi SE 11.5 mph 20.7 mph 0.00 in Snow Light Snow
6:16 AM 24.8 °F 14.6 °F 21.2 °F 86% 30.09 in 1.0 mi SE 10.4 mph 20.7 mph 0.00 in Snow Light Snow
6:32 AM 24.8 °F 12.9 °F 19.4 °F 80% 30.09 in 1.8 mi SE 13.8 mph 28.8 mph 0.00 in Snow Light Snow
6:40 AM 24.8 °F 12.9 °F 19.4 °F 80% 30.09 in 2.5 mi SE 13.8 mph 24.2 mph 0.00 in Snow Light Snow
6:54 AM 24.1 °F 11.5 °F 19.9 °F 84% 30.17 in 1.5 mi SE 15.0 mph 23.0 mph 0.00 in Snow Light Snow
7:36 AM 24.8 °F 12.9 °F 19.4 °F 80% 30.07 in 2.0 mi SE 13.8 mph 21.9 mph 0.00 in Snow Light Snow
7:45 AM 24.8 °F 12.4 °F 19.4 °F 80% 30.07 in 1.2 mi SE 15.0 mph 26.5 mph 0.00 in Snow Light Snow
7:54 AM 24.1 °F 12.0 °F 19.0 °F 81% 30.15 in 1.5 mi SE 13.8 mph 23.0 mph 0.00 in Snow Light Snow
8:19 AM 24.8 °F 11.9 °F 19.4 °F 80% 30.05 in 3.0 mi SE 16.1 mph 27.6 mph 0.00 in Snow Light Snow
8:40 AM 24.8 °F 11.5 °F 19.4 °F 80% 30.04 in 2.0 mi SE 17.3 mph 26.5 mph 0.00 in Snow Light Snow
8:54 AM 24.1 °F 11.0 °F 19.0 °F 81% 30.13 in 2.0 mi SE 16.1 mph 23.0 mph 0.00 in Snow Light Snow
9:05 AM 24.8 °F 11.9 °F 19.4 °F 80% 30.04 in 1.5 mi SE 16.1 mph 29.9 mph 0.00 in Snow Light Snow
9:20 AM 24.8 °F 11.9 °F 19.4 °F 80% 30.02 in 2.0 mi SE 16.1 mph 24.2 mph 0.00 in Snow Light Snow
9:29 AM 24.8 °F 12.9 °F 19.4 °F 80% 30.02 in 1.2 mi SE 13.8 mph 26.5 mph 0.00 in Snow Light Snow
9:43 AM 24.8 °F 13.4 °F 19.4 °F 80% 30.03 in 3.0 mi SE 12.7 mph 23.0 mph 0.00 in Snow Light Snow
9:54 AM 24.1 °F 9.8 °F 19.0 °F 81% 30.12 in 6.0 mi SE 19.6 mph 26.5 mph 0.00 in   Haze
10:27 AM 24.8 °F 10.7 °F 19.4 °F 80% 30.01 in 9.0 mi SSE 19.6 mph 26.5 mph N/A   Overcast
10:54 AM 24.1 °F 10.1 °F 19.9 °F 84% 30.10 in 7.0 mi SE 18.4 mph 32.2 mph N/A   Overcast
11:54 AM 24.1 °F 10.6 °F 21.0 °F 88% 30.08 in 5.0 mi SE 17.3 mph 35.7 mph N/A   Overcast
12:33 PM 24.8 °F 10.7 °F 21.2 °F 86% 29.98 in 1.5 mi SSE 19.6 mph 34.5 mph 0.00 in Snow Light Snow
12:42 PM 24.8 °F 10.3 °F 21.2 °F 86% 29.97 in 0.5 mi SSE 20.7 mph 35.7 mph 0.00 in Fog , Snow Snow
12:50 PM 24.8 °F 9.6 °F 21.2 °F 86% 29.96 in 0.2 mi SSE 23.0 mph 34.5 mph 0.01 in Fog , Snow Snow
12:54 PM 24.1 °F 11.5 °F 21.0 °F 88% 30.05 in 0.2 mi SE 15.0 mph 29.9 mph 0.01 in Fog , Snow Snow
1:43 PM 24.8 °F 13.4 °F 21.2 °F 86% 29.90 in 0.8 mi SE 12.7 mph 27.6 mph 0.07 in Snow Light Snow
1:52 PM 24.8 °F 11.5 °F 19.4 °F 80% 29.91 in 2.0 mi SSE 17.3 mph 27.6 mph 0.07 in Snow Light Snow
1:54 PM 25.0 °F 13.1 °F 21.0 °F 85% 30.00 in 2.5 mi SSE 13.8 mph 27.6 mph 0.07 in Snow Light Snow
2:04 PM 24.8 °F 13.4 °F 21.2 °F 86% 29.90 in 3.0 mi SE 12.7 mph 25.3 mph 0.00 in Snow Light Snow
2:29 PM 24.8 °F 12.4 °F 21.2 °F 86% 29.91 in 2.0 mi SSE 15.0 mph 29.9 mph 0.01 in Snow Light Snow
2:37 PM 24.8 °F 10.0 °F 21.2 °F 86% 29.90 in 1.0 mi SSE 21.9 mph 32.2 mph 0.01 in Snow Light Snow
2:44 PM 24.8 °F 12.9 °F 21.2 °F 86% 29.90 in 0.8 mi SSE 13.8 mph 32.2 mph 0.02 in Snow Light Snow
2:52 PM 24.8 °F 11.1 °F 21.2 °F 86% 29.89 in 1.8 mi SSE 18.4 mph 31.1 mph 0.02 in Snow Light Snow
2:54 PM 25.0 °F 13.1 °F 21.0 °F 85% 29.97 in 2.5 mi SSE 13.8 mph 31.1 mph 0.02 in Snow Light Snow
3:11 PM 26.6 °F 12.7 °F 21.2 °F 80% 29.88 in 1.8 mi SSE 20.7 mph 31.1 mph 0.00 in Snow Light Snow
3:24 PM 26.6 °F 14.7 °F 21.2 °F 80% 29.89 in 3.0 mi SE 15.0 mph 26.5 mph 0.00 in Snow Light Snow
3:54 PM 26.1 °F 12.0 °F 21.0 °F 81% 29.96 in 3.0 mi SSE 20.7 mph 28.8 mph 0.00 in   Overcast
4:04 PM 26.6 °F 13.4 °F 21.2 °F 80% 29.86 in 2.0 mi SSE 18.4 mph 31.1 mph 0.00 in   Overcast
4:23 PM 26.6 °F 12.7 °F 21.2 °F 80% 29.86 in 3.0 mi SE 20.7 mph 29.9 mph 0.01 in   Overcast
4:54 PM 27.0 °F 14.7 °F 21.9 °F 81% 29.94 in 4.0 mi SE 16.1 mph 29.9 mph 0.02 in   Overcast
5:16 PM 26.6 °F 14.7 °F 23.0 °F 86% 29.84 in 7.0 mi SE 15.0 mph 24.2 mph 0.00 in   Overcast
5:54 PM 27.0 °F 13.5 °F 23.0 °F 85% 29.90 in 9.0 mi SE 19.6 mph 29.9 mph 0.00 in   Overcast
6:12 PM 26.6 °F 14.3 °F 23.0 °F 86% 29.81 in 9.0 mi SE 16.1 mph 31.1 mph N/A   Overcast
6:51 PM 26.6 °F 13.1 °F 23.0 °F 86% 29.82 in 10.0 mi SSE 19.6 mph 27.6 mph N/A   Overcast
6:54 PM 27.0 °F 13.9 °F 23.0 °F 85% 29.92 in 10.0 mi SSE 18.4 mph 27.6 mph N/A   Overcast
7:46 PM 26.6 °F 14.7 °F 24.8 °F 93% 29.82 in 10.0 mi SSE 15.0 mph 20.7 mph 0.00 in Rain Light Freezing Rain
7:54 PM 27.0 °F 16.7 °F 24.1 °F 89% 29.89 in 10.0 mi SE 11.5 mph 26.5 mph 0.00 in Rain Light Freezing Rain
8:10 PM 26.6 °F 15.2 °F 24.8 °F 93% 29.80 in 10.0 mi SE 13.8 mph 25.3 mph 0.00 in   Overcast
8:30 PM 26.6 °F 15.7 °F 24.8 °F 93% 29.80 in 10.0 mi SE 12.7 mph 24.2 mph 0.00 in   Overcast
8:54 PM 27.0 °F 17.3 °F 25.0 °F 92% 29.89 in 10.0 mi SE 10.4 mph - 0.00 in   Overcast
9:17 PM 26.6 °F 14.7 °F 26.6 °F 100% 29.78 in 5.0 mi SE 15.0 mph 21.9 mph 0.00 in   Overcast
9:54 PM 27.0 °F 16.1 °F 26.1 °F 96% 29.85 in 2.5 mi SE 12.7 mph 25.3 mph 0.00 in   Overcast
10:04 PM 26.6 °F 15.2 °F 26.6 °F 100% 29.77 in 1.2 mi SSE 13.8 mph 19.6 mph N/A   Overcast
10:18 PM 26.6 °F 16.2 °F 26.6 °F 100% 29.77 in 0.8 mi SE 11.5 mph - N/A   Mist
10:54 PM 27.0 °F 16.1 °F 26.1 °F 96% 29.84 in 0.5 mi SE 12.7 mph 21.9 mph 0.00 in Fog , Rain Light Freezing Rain
11:29 PM 28.4 °F 19.1 °F 26.6 °F 93% 29.74 in 1.2 mi SSE 10.4 mph - 0.00 in Rain Light Freezing Rain
11:50 PM 28.4 °F 17.5 °F 26.6 °F 93% 29.73 in 2.0 mi SSE 13.8 mph - 0.00 in   Overcast
11:54 PM 28.0 °F 18.1 °F 27.0 °F 96% 29.82 in 2.5 mi SSE 11.5 mph - 0.00 in   Overcast